Location: Crescent
(42.8242°N, 73.7329°W)
Time: 05:15:58
(UTC+00:00)

Transit 4A - Pass Details

Date: 17 February 2026
Orbit: 864 x 977 km, 66.8° (Epoch: 5 March)

Event Time Altitude Azimuth Distance (km) Brightness Sun altitude
Rises 10:43:34 0° 262° (W) 3,473 - -12.7°
Reaches altitude 10° 10:46:54 10° 281° (WNW) 2,555 - -12.1°
Exits shadow 10:48:15 14° 293° (WNW) 2,285 9.4 -11.8°
Maximum altitude 10:50:50 18° 323° (NW) 2,066 9.3 -11.3°
Drops below altitude 10° 10:54:52 10° 6° (N) 2,612 10.3 -10.6°
Sets 10:58:20 0° 25° (NNE) 3,582 11.2 -10.0°
